| time (UTC) | temp C | wind direction | speed KPH | gust KPH | rain 1hr cm | rain 24hr cm | rain mn cm | humidity % | barometer mb |
| 20260506200037 | 16 | 25 | 8.0 | 24.1 | 0.00 | 0.00 | 0.00 | 70 | 1014.7 |
| 20260506194548 | 16 | 46 | 6.4 | 25.7 | 0.00 | 0.00 | 0.00 | 71 | 1014.1 |
| 20260506193045 | 16 | 29 | 12.9 | 27.4 | 0.00 | 0.00 | 0.00 | 70 | 1013.9 |
| 20260506191542 | 15 | 9 | 12.9 | 24.1 | 0.00 | 0.00 | 0.00 | 72 | 1014.3 |
| 20260506190038 | 15 | 32 | 11.3 | 27.4 | 0.00 | 0.00 | 0.00 | 72 | 1014.4 |
| 20260506184549 | 15 | 9 | 16.1 | 32.2 | 0.00 | 0.00 | 0.00 | 70 | 1014.0 |
| 20260506183040 | 15 | 19 | 19.3 | 33.8 | 0.00 | 0.00 | 0.00 | 71 | 1014.2 |
| 20260506181540 | 15 | 328 | 20.9 | 32.2 | 0.00 | 0.00 | 0.00 | 74 | 1014.2 |
| 20260506180038 | 14 | 20 | 19.3 | 33.8 | 0.00 | 0.00 | 0.00 | 75 | 1014.5 |
| 20260506174537 | 14 | 23 | 16.1 | 32.2 | 0.00 | 0.00 | 0.00 | 73 | 1014.8 |
| 20260506173059 | 13 | 35 | 17.7 | 32.2 | 0.00 | 0.00 | 0.00 | 76 | 1015.4 |
| 20260506171550 | 13 | 348 | 14.5 | 29.0 | 0.00 | 0.00 | 0.00 | 77 | 1015.3 |
| 20260506170039 | 13 | 18 | 20.9 | 30.6 | 0.00 | 0.00 | 0.00 | 75 | 1015.1 |
| 20260506164538 | 12 | 22 | 16.1 | 32.2 | 0.00 | 0.00 | 0.00 | 77 | 1015.3 |
| 20260506163052 | 12 | 18 | 19.3 | 29.0 | 0.00 | 0.00 | 0.00 | 77 | 1015.5 |
| 20260506161542 | 12 | 33 | 12.9 | 20.9 | 0.00 | 0.00 | 0.00 | 78 | 1015.7 |
| 20260506160038 | 11 | 23 | 9.7 | 14.5 | 0.00 | 0.00 | 0.00 | 79 | 1016.2 |
| 20260506154547 | 11 | 48 | 3.2 | 22.5 | 0.00 | 0.00 | 0.00 | 79 | 1016.7 |
| 20260506153040 | 11 | 328 | 14.5 | 30.6 | 0.00 | 0.00 | 0.00 | 79 | 1015.8 |
| 20260506151544 | 11 | 19 | 16.1 | 25.7 | 0.00 | 0.00 | 0.00 | 79 | 1015.4 |
| 20260506150042 | 11 | 358 | 14.5 | 29.0 | 0.00 | 0.00 | 0.00 | 79 | 1015.4 |
| 20260506144539 | 11 | 31 | 11.3 | 22.5 | 0.00 | 0.00 | 0.00 | 80 | 1015.6 |
| 20260506143038 | 11 | 33 | 14.5 | 19.3 | 0.00 | 0.00 | 0.00 | 80 | 1015.4 |
| 20260506141536 | 11 | 25 | 16.1 | 27.4 | 0.00 | 0.00 | 0.00 | 80 | 1015.3 |
| 20260506140047 | 11 | 351 | 9.7 | 25.7 | 0.00 | 0.00 | 0.00 | 81 | 1014.5 |
| 20260506134539 | 11 | 13 | 14.5 | 29.0 | 0.00 | 0.00 | 0.00 | 80 | 1014.4 |
| 20260506133039 | 11 | 351 | 16.1 | 29.0 | 0.00 | 0.00 | 0.00 | 81 | 1014.3 |
| 20260506131538 | 11 | 26 | 19.3 | 29.0 | 0.00 | 0.00 | 0.00 | 81 | 1014.0 |
| 20260506130038 | 11 | 37 | 16.1 | 25.7 | 0.00 | 0.00 | 0.00 | 82 | 1013.8 |
| 20260506124539 | 10 | 37 | 14.5 | 32.2 | 0.00 | 0.00 | 0.00 | 83 | 1013.6 |
| 20260506123044 | 10 | 36 | 16.1 | 27.4 | 0.00 | 0.00 | 0.00 | 84 | 1013.7 |
| 20260506121541 | 10 | 28 | 19.3 | 29.0 | 0.00 | 0.00 | 0.00 | 85 | 1013.6 |
| 20260506120040 | 10 | 8 | 20.9 | 35.4 | 0.00 | 0.00 | 0.00 | 85 | 1013.6 |
| 20260506114540 | 10 | 14 | 19.3 | 29.0 | 0.00 | 0.00 | 0.00 | 86 | 1013.2 |
| 20260506113038 | 10 | 25 | 17.7 | 29.0 | 0.00 | 0.00 | 0.00 | 87 | 1013.0 |
| 20260506111541 | 10 | 30 | 22.5 | 35.4 | 0.00 | 0.00 | 0.00 | 87 | 1012.9 |
| 20260506110041 | 10 | 358 | 20.9 | 30.6 | 0.00 | 0.00 | 0.00 | 86 | 1012.8 |
| 20260506104543 | 10 | 342 | 17.7 | 33.8 | 0.00 | 0.00 | 0.00 | 85 | 1012.9 |
| 20260506103038 | 10 | 13 | 17.7 | 29.0 | 0.00 | 0.00 | 0.00 | 85 | 1012.7 |
| 20260506101538 | 10 | 333 | 17.7 | 29.0 | 0.00 | 0.00 | 0.00 | 85 | 1012.2 |
| 20260506100047 | 10 | 347 | 20.9 | 30.6 | 0.00 | 0.00 | 0.00 | 84 | 1012.1 |
| 20260506094545 | 11 | 20 | 14.5 | 32.2 | 0.00 | 0.00 | 0.00 | 83 | 1011.9 |
| 20260506093101 | 11 | 15 | 17.7 | 27.4 | 0.00 | 0.00 | 0.00 | 82 | 1011.6 |
| 20260506091535 | 11 | 338 | 12.9 | 27.4 | 0.00 | 0.00 | 0.00 | 81 | 1011.4 |
| 20260506090040 | 11 | 338 | 14.5 | 22.5 | 0.00 | 0.00 | 0.00 | 81 | 1011.2 |
| 20260506084537 | 11 | 20 | 14.5 | 24.1 | 0.00 | 0.00 | 0.00 | 80 | 1011.0 |
| 20260506083045 | 11 | 13 | 12.9 | 19.3 | 0.00 | 0.00 | 0.00 | 79 | 1011.1 |
| 20260506081540 | 11 | 324 | 12.9 | 22.5 | 0.00 | 0.00 | 0.00 | 80 | 1010.9 |
| 20260506073039 | 12 | 359 | 16.1 | 25.7 | 0.00 | 0.00 | 0.00 | 79 | 1010.9 |
| 20260506071537 | 12 | 353 | 17.7 | 25.7 | 0.00 | 0.00 | 0.00 | 79 | 1010.5 |
| 20260506061552 | 12 | 41 | 16.1 | 25.7 | 0.00 | 0.00 | 0.00 | 80 | 1010.5 |
| 20260506044543 | 12 | 320 | 12.9 | 24.1 | 0.00 | 0.00 | 0.00 | 81 | 1010.7 |
| 20260506043039 | 12 | 356 | 16.1 | 29.0 | 0.00 | 0.00 | 0.00 | 81 | 1010.7 |
| 20260506041542 | 13 | 330 | 14.5 | 24.1 | 0.00 | 0.00 | 0.00 | 82 | 1010.6 |
| 20260506040040 | 13 | 28 | 19.3 | 32.2 | 0.00 | 0.00 | 0.00 | 82 | 1010.3 |
| 20260506034536 | 13 | 21 | 20.9 | 30.6 | 0.00 | 0.00 | 0.00 | 82 | 1010.6 |
| 20260506033049 | 13 | 5 | 20.9 | 29.0 | 0.00 | 0.00 | 0.00 | 82 | 1010.4 |
| 20260506031542 | 13 | 5 | 14.5 | 27.4 | 0.00 | 0.00 | 0.00 | 83 | 1010.1 |
| 20260506030040 | 13 | 19 | 14.5 | 24.1 | 0.00 | 0.00 | 0.00 | 84 | 1010.1 |
| 20260506024537 | 14 | 2 | 14.5 | 29.0 | 0.00 | 0.00 | 0.00 | 84 | 1009.8 |
| 20260506023049 | 14 | 4 | 14.5 | 33.8 | 0.00 | 0.00 | 0.00 | 85 | 1009.4 |
| 20260506021540 | 14 | 343 | 22.5 | 32.2 | 0.00 | 0.00 | 0.00 | 84 | 1008.6 |
| 20260506020108 | 15 | 10 | 20.9 | 33.8 | 0.00 | 0.00 | 0.00 | 84 | 1007.7 |
| 20260506014534 | 15 | 348 | 20.9 | 32.2 | 0.00 | 0.00 | 0.00 | 84 | 1007.7 |
| 20260506013034 | 15 | 330 | 20.9 | 32.2 | 0.00 | 0.00 | 0.00 | 84 | 1007.4 |
| 20260506011541 | 16 | 18 | 16.1 | 32.2 | 0.00 | 0.00 | 0.00 | 84 | 1007.1 |
| 20260506010040 | 16 | 345 | 20.9 | 32.2 | 0.00 | 0.00 | 0.00 | 82 | 1006.4 |
| 20260506004542 | 17 | 337 | 20.9 | 30.6 | 0.00 | 0.00 | 0.00 | 81 | 1006.8 |
| 20260506003035 | 17 | 349 | 19.3 | 30.6 | 0.00 | 0.00 | 0.00 | 80 | 1006.5 |
| 20260506001544 | 18 | 3 | 20.9 | 30.6 | 0.00 | 0.00 | 0.00 | 79 | 1006.1 |
| 20260506000056 | 19 | 317 | 14.5 | 22.5 | 0.00 | 0.00 | 0.00 | 79 | 1006.1 |
| 20260505234542 | 19 | 324 | 12.9 | 22.5 | 0.00 | 0.00 | 0.00 | 78 | 1006.5 |
| 20260505233034 | 20 | 304 | 12.9 | 30.6 | 0.00 | 0.00 | 0.00 | 78 | 1006.0 |
| 20260505231538 | 20 | 326 | 11.3 | 27.4 | 0.00 | 0.00 | 0.00 | 76 | 1005.9 |
| 20260505230049 | 21 | 318 | 8.0 | 24.1 | 0.00 | 0.00 | 0.00 | 75 | 1006.1 |
| 20260505224546 | 21 | 343 | 8.0 | 20.9 | 0.00 | 0.00 | 0.00 | 75 | 1006.0 |
| 20260505223039 | 22 | 342 | 6.4 | 19.3 | 0.00 | 0.00 | 0.00 | 74 | 1005.7 |
| 20260505221547 | 22 | 352 | 11.3 | 22.5 | 0.00 | 0.00 | 0.00 | 73 | 1005.3 |
| 20260505220058 | 22 | 295 | 11.3 | 25.7 | 0.00 | 0.00 | 0.00 | 73 | 1005.0 |
| 20260505214546 | 23 | 306 | 9.7 | 22.5 | 0.00 | 0.00 | 0.00 | 70 | 1005.0 |
| 20260505213039 | 25 | 326 | 6.4 | 17.7 | 0.00 | 0.00 | 0.00 | 68 | 1004.7 |
| 20260505211604 | 25 | 303 | 4.8 | 20.9 | 0.00 | 0.00 | 0.00 | 68 | 1005.0 |
| 20260505210043 | 26 | 302 | 6.4 | 16.1 | 0.00 | 0.00 | 0.00 | 65 | 1005.1 |
| 20260505204555 | 27 | 277 | 8.0 | 17.7 | 0.00 | 0.00 | 0.00 | 64 | 1005.0 |
| 20260505203039 | 28 | 274 | 6.4 | 25.7 | 0.00 | 0.00 | 0.00 | 60 | 1004.8 |
| 20260505201542 | 27 | 255 | 9.7 | 24.1 | 0.00 | 0.00 | 0.00 | 57 | 1004.7 |